Wind_Speed
61 60 60 59 58 57 56 54 54 53 52 52 51 50 48 46 45 43 41 39 37 36 36 39 42 47 51 55 58 59 59 59 62 71 78 81 85 87 89 90 89 86 84
60 60 59 59 58 58 57 56 56 56 55 55 54 51 48 46 45 45 44 41 39 37 37 37 40 43 47 52 55 57 57 57 58 65 74 79 81 81 85 87 86 86 84
60 59 59 59 59 58 58 58 58 58 58 57 53 50 45 41 39 40 41 42 41 39 37 37 38 40 44 48 52 54 55 55 55 59 70 77 79 79 81 83 85 86 84
59 59 59 59 59 59 59 60 61 61 60 57 52 46 39 34 31 30 33 37 39 39 38 37 37 38 41 45 49 52 52 53 53 54 64 75 80 80 79 80 82 84 84
59 59 59 59 60 60 61 62 63 63 62 56 48 40 34 28 22 20 22 27 32 35 35 36 37 37 39 42 46 49 50 50 50 50 57 69 79 83 82 79 79 82 84
58 58 58 59 60 61 62 64 65 64 62 55 46 37 30 24 19 13 13 17 23 28 31 33 35 37 38 40 43 46 48 48 48 48 51 61 74 84 85 83 80 80 81
57 57 58 60 61 61 63 64 66 65 62 55 46 36 28 25 20 12 6 7 15 21 25 28 31 34 36 38 41 44 45 45 46 46 47 53 65 78 84 83 82 80 81
56 57 58 59 60 61 63 64 66 66 62 56 47 37 29 25 21 15 7 1 9 16 20 23 26 30 34 36 39 41 42 43 43 43 43 47 55 68 79 83 82 80 80
55 56 57 59 60 61 62 64 65 65 63 58 50 41 32 26 22 16 8 3 7 12 17 20 24 27 31 34 36 39 40 41 41 41 42 43 48 57 69 77 80 79 78
55 56 57 58 59 60 62 64 65 65 64 60 54 45 36 30 24 18 11 5 6 10 14 18 22 25 28 31 34 36 38 39 39 39 40 41 43 48 57 67 73 75 75
54 56 57 57 58 60 62 63 65 65 64 61 57 51 42 33 27 21 14 7 5 7 11 15 18 22 24 28 31 34 37 38 38 38 38 40 41 44 48 57 64 69 71
53 55 56 57 57 58 60 61 63 63 63 61 58 54 48 40 31 24 17 10 4 4 8 12 16 20 22 26 29 32 35 36 37 37 37 39 41 42 44 49 55 60 64
52 53 54 56 56 57 58 59 60 61 61 61 59 55 52 47 39 30 22 15 8 1 4 9 13 17 20 24 27 31 34 35 36 36 37 38 39 41 43 45 49 53 56
51 51 52 54 55 55 56 57 58 59 59 60 59 57 54 50 46 39 30 22 14 8 3 6 10 14 18 22 26 29 32 34 35 36 37 38 38 40 42 44 46 49 52
49 50 51 52 53 54 56 56 57 58 59 59 59 57 55 52 49 45 39 31 23 15 9 4 6 10 15 20 24 28 31 33 35 36 37 38 39 40 41 43 45 47 49
48 49 49 50 52 53 54 55 57 57 57 58 58 58 56 54 51 48 43 38 33 25 17 9 5 6 10 16 22 26 30 33 35 36 37 38 39 40 40 42 44 46 47
48 48 48 49 50 51 52 53 53 55 56 56 56 56 55 54 52 49 46 42 37 33 26 18 10 5 6 12 18 24 29 32 35 36 38 39 40 41 41 42 44 45 46
47 48 48 48 49 50 51 52 52 52 52 53 54 54 54 53 52 50 47 45 41 37 32 26 18 10 4 6 13 21 27 31 34 37 39 40 41 41 42 42 44 45 45
46 46 47 47 48 49 50 50 50 51 51 51 51 52 52 52 51 50 48 46 44 40 36 31 25 18 9 4 7 15 23 29 33 37 39 41 42 43 43 43 44 45 45
45 46 46 46 47 48 48 48 49 49 50 50 50 50 50 50 50 49 48 46 44 42 39 34 30 24 17 9 4 9 17 26 32 36 39 42 44 44 45 45 45 45 46
44 45 45 45 46 47 47 47 48 48 48 48 49 49 49 50 50 49 48 46 45 43 40 37 33 28 22 15 8 4 11 20 28 34 38 42 44 46 47 48 48 48 47
43 44 44 44 45 46 46 46 47 47 47 47 47 47 48 48 48 49 48 46 45 43 41 39 35 31 26 20 13 6 5 14 22 30 36 40 44 47 49 49 50 51 50
43 43 43 44 44 45 45 45 45 45 45 45 45 46 46 46 47 47 47 46 45 44 42 40 37 33 29 24 17 10 5 7 16 24 32 38 42 46 49 51 52 52 52
42 42 42 42 43 43 44 44 44 44 44 44 44 44 45 45 45 46 46 45 45 44 43 41 39 35 32 27 21 14 8 5 11 19 26 34 40 44 47 50 53 54 54
42 42 42 41 41 42 43 43 43 43 43 43 43 43 43 43 44 44 45 45 44 43 43 42 40 37 34 30 25 18 11 6 7 14 21 29 36 41 45 49 52 54 55
41 41 41 41 41 41 42 42 42 42 42 42 42 42 42 43 42 43 44 44 44 43 43 42 40 38 35 32 27 22 15 9 5 9 17 24 31 38 42 46 50 53 54
Wind_Direction
340 340 341 341 340 339 338 335 332 329 324 320 314 307 300 291 283 277 271 266 260 256 250 243 237 232 229 226 225 224 223 221 220 219 217 217 217 218 219 219 220 220 221
342 343 343 343 343 341 340 338 335 332 328 323 318 311 303 293 283 273 266 261 256 252 248 243 237 232 228 225 224 223 222 221 220 218 216 213 214 214 217 218 218 220 220
344 345 346 345 345 344 343 341 339 336 332 329 324 318 310 299 287 273 262 255 251 247 244 240 236 231 227 224 223 222 221 220 219 217 215 213 210 210 212 214 216 217 218
347 348 348 348 348 347 347 346 344 341 339 336 332 329 322 311 296 278 262 250 244 241 239 236 233 229 225 223 221 220 219 219 219 217 215 213 210 206 207 209 212 214 216
350 350 350 350 351 351 351 350 349 348 346 344 343 342 339 333 316 291 265 248 238 233 232 230 228 225 223 221 219 218 218 218 218 217 215 214 212 208 205 206 209 211 214
352 352 353 353 354 354 354 355 355 354 353 352 353 355 357 358 350 322 280 248 232 226 225 224 223 222 220 219 218 217 216 217 217 217 215 214 213 212 209 206 205 208 211
354 354 355 356 357 357 358 359 360 360 360 0 2 6 12 13 9 353 323 249 222 216 217 218 218 218 217 217 216 215 215 215 216 216 215 214 214 213 212 208 206 207 209
356 356 357 359 360 1 1 3 4 5 6 8 9 13 18 19 18 12 14 215 198 201 205 209 213 214 214 214 214 214 213 213 214 215 214 212 213 214 214 212 210 208 209
357 359 0 1 2 3 5 6 8 9 11 13 14 16 18 19 23 25 35 97 172 186 195 202 208 210 211 212 212 212 212 211 212 213 212 210 210 212 214 214 213 212 211
360 1 3 4 5 6 8 9 11 12 14 16 18 19 20 22 25 27 37 78 144 175 191 203 208 210 210 211 211 211 210 209 210 210 210 209 208 208 210 213 214 214 214
2 3 5 6 7 8 10 12 13 15 16 18 19 21 22 22 24 28 37 62 120 163 186 200 208 211 210 210 211 210 209 208 208 208 208 207 206 206 207 208 211 213 214
3 5 6 8 9 10 12 13 15 17 18 19 21 22 24 24 25 26 31 42 72 159 193 208 213 214 212 211 211 210 209 207 206 206 206 205 204 204 204 204 205 208 211
5 6 7 9 10 11 13 14 16 18 19 21 22 24 25 26 26 26 26 28 30 24 222 222 222 219 216 213 212 211 209 207 205 204 203 203 203 203 203 202 201 202 204
6 7 8 9 10 12 13 15 16 18 20 22 23 24 25 27 28 28 27 26 22 12 320 247 233 226 220 216 213 212 210 208 205 203 202 201 201 201 202 201 200 199 199
6 7 9 10 11 11 13 14 16 18 20 22 23 24 26 26 27 28 28 27 24 17 4 317 256 235 225 219 215 212 210 208 206 204 202 200 199 199 199 199 199 199 198
6 8 9 10 11 12 13 14 15 18 19 21 22 24 25 26 27 27 27 27 27 24 18 2 319 257 232 221 216 213 211 209 207 205 202 200 198 198 198 198 198 199 198
6 7 8 9 10 12 13 14 15 16 18 20 21 23 24 24 25 26 27 27 26 26 24 19 6 323 252 229 219 214 211 209 208 206 203 201 199 198 197 197 197 197 197
5 7 8 8 10 11 12 13 15 16 17 19 20 21 22 23 24 25 25 26 26 25 24 23 19 7 322 245 224 216 213 210 208 207 205 202 200 199 197 197 196 195 195
4 5 7 8 9 10 11 12 13 14 16 18 19 20 21 22 22 23 24 24 24 24 23 23 21 18 6 310 237 219 214 211 209 207 206 204 202 200 198 197 196 195 195
2 3 5 7 8 10 10 11 12 13 14 15 17 19 20 21 21 21 22 22 22 22 22 21 20 19 15 3 295 230 217 213 210 208 207 205 204 202 200 199 198 197 196
0 2 3 5 7 8 9 10 11 11 12 14 15 16 18 19 19 19 20 20 20 20 20 20 19 18 16 11 358 275 225 214 211 210 207 206 205 204 202 201 200 199 198
358 359 1 3 4 6 7 8 9 10 11 12 13 14 16 17 17 18 18 18 19 19 18 18 17 17 15 12 5 343 251 220 213 210 209 207 206 205 204 202 202 201 200
357 358 359 1 2 4 4 5 6 7 9 10 11 12 13 14 15 15 16 16 17 17 17 17 16 15 14 12 7 357 317 237 218 212 210 209 207 206 206 204 204 203 202
356 356 357 359 0 2 3 4 5 6 7 8 8 9 11 12 13 13 14 14 15 15 15 15 14 14 12 11 8 2 343 277 226 215 211 210 209 208 207 206 205 204 204
354 355 355 356 358 360 1 2 3 4 5 6 7 7 9 10 10 11 12 13 13 13 13 13 13 12 11 10 8 4 355 321 246 221 214 210 209 208 208 208 207 206 206
353 353 354 355 356 357 359 360 1 2 3 4 5 6 7 8 9 10 11 11 12 12 12 12 12 11 10 10 8 5 0 346 286 231 217 212 210 208 208 208 208 208 208
Height
5526 5512 5498 5485 5471 5458 5445 5433 5421 5409 5397 5386 5375 5366 5359 5354 5350 5349 5349 5350 5352 5354 5356 5360 5365 5372 5380 5388 5398 5409 5420 5430 5441 5452 5464 5479 5494 5510 5525 5540 5556 5570 5584
5521 5507 5492 5479 5465 5451 5438 5424 5411 5397 5383 5370 5357 5346 5337 5331 5328 5327 5329 5332 5336 5339 5343 5347 5352 5359 5366 5375 5384 5395 5406 5417 5427 5438 5449 5463 5478 5494 5508 5524 5539 5554 5568
5516 5502 5487 5474 5460 5445 5431 5416 5401 5386 5370 5354 5339 5326 5316 5309 5305 5305 5307 5312 5318 5324 5329 5335 5340 5347 5354 5362 5371 5382 5392 5403 5414 5424 5435 5447 5462 5477 5492 5508 5522 5538 5552
5512 5497 5483 5469 5454 5439 5424 5409 5392 5375 5358 5340 5324 5310 5299 5292 5288 5287 5288 5294 5301 5309 5316 5322 5329 5335 5343 5351 5360 5370 5380 5391 5402 5411 5421 5432 5447 5461 5476 5491 5506 5521 5537
5508 5493 5479 5465 5450 5435 5419 5403 5385 5366 5347 5329 5313 5299 5289 5281 5276 5274 5275 5279 5286 5294 5303 5310 5318 5325 5332 5340 5349 5359 5370 5380 5391 5400 5409 5420 5432 5446 5461 5476 5492 5506 5522
5504 5491 5476 5462 5447 5431 5415 5398 5380 5361 5342 5323 5307 5294 5283 5276 5271 5268 5268 5271 5277 5285 5293 5300 5308 5316 5324 5331 5340 5350 5360 5371 5381 5390 5398 5407 5418 5432 5446 5461 5477 5491 5508
5502 5489 5475 5460 5445 5429 5413 5396 5378 5359 5340 5322 5306 5293 5283 5276 5271 5267 5267 5269 5273 5280 5287 5294 5301 5308 5316 5324 5333 5342 5352 5362 5371 5380 5389 5397 5407 5420 5435 5451 5463 5477 5493
5501 5488 5474 5459 5444 5429 5413 5396 5378 5359 5341 5324 5309 5296 5287 5279 5274 5271 5270 5271 5274 5278 5284 5290 5296 5303 5310 5318 5326 5335 5344 5354 5363 5373 5382 5390 5398 5408 5421 5435 5449 5465 5480
5501 5488 5474 5459 5445 5430 5414 5398 5380 5363 5345 5328 5313 5301 5292 5284 5279 5276 5274 5274 5276 5279 5283 5287 5292 5299 5306 5313 5321 5329 5338 5347 5356 5364 5373 5381 5390 5399 5410 5423 5438 5452 5467
5501 5488 5474 5460 5445 5431 5416 5399 5383 5366 5350 5334 5320 5308 5298 5290 5285 5281 5278 5278 5279 5281 5284 5287 5291 5297 5303 5309 5317 5324 5332 5341 5349 5358 5366 5375 5383 5392 5401 5413 5427 5441 5455
5500 5487 5474 5461 5447 5433 5418 5403 5387 5371 5356 5341 5328 5316 5305 5297 5291 5287 5284 5282 5282 5283 5285 5288 5291 5296 5301 5307 5313 5320 5327 5336 5344 5352 5361 5369 5377 5385 5394 5405 5417 5431 5445
5501 5488 5476 5463 5450 5437 5423 5408 5394 5380 5366 5352 5338 5326 5315 5305 5298 5293 5289 5287 5286 5286 5287 5289 5291 5295 5300 5304 5310 5316 5323 5331 5339 5347 5355 5364 5372 5380 5388 5398 5409 5421 5435
5502 5490 5478 5466 5454 5441 5429 5415 5402 5388 5375 5361 5348 5335 5324 5314 5306 5299 5295 5292 5290 5289 5289 5290 5292 5295 5298 5303 5307 5313 5320 5327 5335 5343 5351 5359 5367 5375 5383 5392 5403 5414 5426
5504 5493 5481 5470 5458 5446 5434 5421 5409 5396 5383 5370 5357 5345 5334 5324 5315 5307 5301 5296 5294 5292 5291 5291 5292 5294 5297 5300 5305 5310 5316 5323 5331 5338 5346 5354 5362 5370 5379 5387 5397 5407 5418
5506 5495 5484 5473 5461 5450 5438 5426 5414 5402 5389 5377 5366 5354 5343 5333 5324 5315 5308 5302 5298 5295 5292 5292 5292 5293 5295 5298 5302 5307 5313 5319 5326 5334 5342 5350 5358 5366 5374 5382 5391 5400 5411
5509 5498 5487 5477 5465 5454 5442 5429 5418 5407 5395 5384 5372 5361 5351 5341 5331 5323 5316 5309 5303 5298 5295 5293 5292 5292 5293 5295 5299 5303 5309 5315 5322 5330 5337 5345 5353 5361 5369 5377 5386 5395 5405
5510 5500 5489 5479 5469 5458 5447 5436 5424 5413 5401 5391 5380 5370 5360 5350 5340 5332 5324 5316 5309 5303 5299 5295 5292 5292 5292 5293 5296 5300 5305 5311 5317 5325 5333 5341 5349 5357 5365 5373 5381 5390 5399
5511 5501 5491 5481 5471 5461 5450 5440 5430 5420 5409 5398 5388 5377 5367 5358 5348 5340 5331 5323 5316 5309 5303 5298 5294 5292 5291 5291 5293 5296 5301 5306 5312 5320 5327 5335 5344 5352 5360 5368 5376 5385 5394
5513 5503 5494 5484 5474 5464 5454 5444 5434 5424 5414 5404 5394 5384 5374 5365 5356 5347 5338 5330 5322 5315 5308 5302 5297 5294 5291 5290 5291 5293 5296 5301 5307 5314 5321 5329 5338 5346 5355 5363 5372 5380 5389
5514 5505 5496 5486 5476 5467 5457 5448 5438 5429 5419 5409 5400 5391 5381 5372 5363 5353 5344 5336 5328 5320 5313 5306 5301 5296 5292 5290 5290 5290 5293 5296 5302 5308 5315 5323 5331 5340 5349 5358 5366 5375 5384
5515 5506 5497 5488 5478 5469 5460 5451 5442 5432 5423 5414 5404 5395 5385 5376 5367 5358 5350 5341 5333 5325 5318 5311 5304 5299 5294 5291 5289 5288 5289 5292 5296 5302 5309 5316 5325 5333 5342 5351 5360 5369 5378
5515 5507 5498 5489 5480 5471 5462 5453 5444 5435 5427 5418 5408 5399 5390 5381 5372 5363 5355 5346 5338 5330 5322 5315 5308 5302 5296 5292 5289 5287 5287 5288 5292 5296 5302 5309 5317 5326 5335 5344 5353 5362 5372
5515 5507 5499 5490 5481 5473 5464 5455 5447 5438 5429 5421 5412 5403 5394 5386 5377 5368 5359 5350 5342 5334 5326 5318 5311 5304 5298 5293 5289 5286 5285 5285 5287 5291 5296 5303 5310 5318 5327 5336 5345 5354 5364
5516 5507 5499 5491 5483 5474 5466 5457 5449 5440 5432 5423 5415 5406 5397 5389 5380 5371 5363 5354 5345 5337 5329 5321 5313 5306 5300 5294 5289 5285 5283 5282 5283 5286 5290 5295 5302 5310 5318 5327 5336 5346 5355
5515 5507 5499 5491 5483 5475 5467 5459 5450 5442 5433 5425 5417 5409 5400 5392 5383 5375 5366 5357 5349 5340 5332 5324 5316 5308 5301 5295 5289 5284 5281 5279 5279 5281 5284 5289 5295 5302 5310 5319 5328 5337 5347
5515 5507 5499 5491 5483 5476 5468 5460 5451 5443 5435 5427 5419 5411 5403 5394 5386 5378 5369 5360 5351 5343 5334 5326 5317 5309 5302 5295 5289 5284 5280 5277 5276 5277 5279 5282 5288 5294 5302 5310 5319 5328 5338